FW3814 Weather Reports


Display with metric or nautical units.
time (UTC)temp
F
wind
direction
speed
MPH
gust
MPH
rain 1hr
in
rain 24hr
in
rain mn
in
humidity
%
barometer
mb
20260510185503 55 88 4.0 4.0 0.00 0.39 0.39 85 1010.6
20260510185003 55 85 4.0 4.0 0.00 0.39 0.39 85 1010.7
20260510184503 55 79 2.0 4.0 0.00 0.39 0.39 85 1010.7
20260510184003 55 67 2.0 3.0 0.00 0.39 0.39 85 1010.6
20260510183503 55 76 2.0 3.0 0.00 0.39 0.39 85 1010.6
20260510183024 55 89 3.0 4.0 0.00 0.39 0.39 85 1010.7
20260510182503 55 81 4.0 4.0 0.00 0.39 0.39 85 1010.4
20260510182003 55 72 4.0 4.0 0.00 0.39 0.39 85 1010.5
20260510181524 55 66 4.0 4.0 0.00 0.39 0.39 85 1010.6
20260510181003 55 63 3.0 4.0 0.00 0.39 0.39 85 1010.4
20260510180524 55 62 3.0 4.0 0.00 0.39 0.39 84 1010.3
20260510180003 55 67 4.0 6.0 0.00 0.39 0.39 84 1010.4
20260510175503 55 65 5.0 7.0 0.00 0.39 0.39 84 1010.5
20260510175003 55 77 6.0 7.0 0.00 0.39 0.39 84 1010.3
20260510174503 55 86 6.0 7.0 0.00 0.39 0.39 84 1010.4
20260510174003 55 81 5.0 7.0 0.00 0.39 0.39 84 1010.5
20260510173503 55 69 5.0 7.0 0.00 0.39 0.39 84 1010.6
20260510173024 55 68 6.0 7.0 0.00 0.39 0.39 84 1010.6
20260510172503 55 77 5.0 7.0 0.00 0.39 0.39 84 1010.4
20260510172004 56 88 5.0 8.0 0.00 0.39 0.39 84 1010.5
20260510171503 56 90 6.0 8.0 0.01 0.39 0.39 84 1010.5
20260510171003 56 115 6.0 7.0 0.01 0.39 0.39 84 1010.5
20260510170503 56 112 6.0 7.0 0.01 0.39 0.39 83 1010.5
20260510170024 56 96 5.0 7.0 0.01 0.39 0.39 83 1010.5
20260510165503 56 105 4.0 7.0 0.01 0.39 0.39 83 1010.5
20260510165003 56 108 4.0 7.0 0.01 0.39 0.39 83 1010.6
20260510164503 56 118 4.0 5.0 0.01 0.39 0.39 83 1010.5
20260510164003 56 121 4.0 5.0 0.01 0.39 0.39 83 1010.5
20260510163503 56 102 3.0 4.0 0.01 0.39 0.39 83 1010.6
20260510163003 56 100 4.0 5.0 0.01 0.39 0.39 83 1010.7
20260510162503 56 120 4.0 5.0 0.01 0.39 0.39 83 1010.8
20260510162003 56 140 3.0 4.0 0.01 0.39 0.39 83 1010.7
20260510161503 57 127 3.0 4.0 0.00 0.38 0.38 83 1010.8
20260510161024 57 83 4.0 4.0 0.01 0.38 0.38 83 1010.9
20260510160524 57 89 4.0 4.0 0.02 0.38 0.38 83 1010.8
20260510160024 57 117 4.0 4.0 0.02 0.38 0.38 82 1010.8
20260510155503 57 132 3.0 4.0 0.02 0.38 0.38 82 1010.9
20260510155003 57 137 1.0 3.0 0.02 0.38 0.38 82 1011.1
20260510154503 57 67 0.0 1.0 0.02 0.38 0.38 82 1011.1
20260510154003 57 0 0.0 0.0 0.02 0.38 0.38 82 1011.1
20260510153503 57 124 2.0 4.0 0.02 0.38 0.38 82 1011.2
20260510153024 57 123 2.0 4.0 0.02 0.38 0.38 82 1011.2
20260510152503 57 100 1.0 4.0 0.02 0.38 0.38 82 1011.2
20260510152003 57 71 2.0 3.0 0.02 0.38 0.38 82 1011.2
20260510151503 57 80 3.0 4.0 0.02 0.38 0.38 82 1011.2
20260510151003 57 113 4.0 4.0 0.01 0.37 0.37 82 1011.1
20260510150503 57 120 4.0 4.0 0.00 0.35 0.35 82 1011.2
20260510150003 57 120 4.0 4.0 0.00 0.35 0.35 82 1011.2
20260510145503 57 142 4.0 4.0 0.00 0.35 0.35 82 1011.2
20260510145003 57 161 3.0 4.0 0.00 0.35 0.35 82 1011.2
20260510144503 57 169 3.0 4.0 0.00 0.35 0.35 82 1011.5
20260510144003 57 159 3.0 4.0 0.00 0.35 0.35 82 1011.5
20260510143503 57 138 2.0 4.0 0.00 0.35 0.35 82 1011.4
20260510143003 57 142 2.0 4.0 0.00 0.35 0.35 82 1011.4
20260510142503 57 169 2.0 4.0 0.00 0.35 0.35 82 1011.4
20260510142003 57 165 3.0 4.0 0.00 0.35 0.35 82 1011.4
20260510141503 57 149 4.0 5.0 0.00 0.35 0.35 82 1011.5
20260510141003 57 170 3.0 5.0 0.00 0.35 0.35 81 1011.5
20260510140503 57 188 4.0 5.0 0.00 0.35 0.35 81 1011.4
20260510140003 57 159 4.0 5.0 0.00 0.35 0.35 81 1011.5
20260510135503 57 139 4.0 5.0 0.00 0.35 0.35 81 1011.5
20260510135003 57 155 4.0 5.0 0.00 0.35 0.35 82 1011.7
20260510134524 57 148 4.0 6.0 0.00 0.35 0.35 82 1011.7
20260510134003 58 153 5.0 8.0 0.00 0.35 0.35 82 1011.8
20260510133503 58 155 5.0 8.0 0.00 0.35 0.35 83 1011.7
20260510133003 58 120 5.0 6.0 0.00 0.35 0.35 84 1011.8
20260510132503 58 111 4.0 6.0 0.00 0.35 0.35 84 1011.7
20260510132003 57 119 4.0 5.0 0.00 0.35 0.35 84 1011.8
20260510131503 57 144 4.0 5.0 0.00 0.35 0.35 84 1012.0
20260510131003 57 181 4.0 5.0 0.00 0.35 0.35 85 1012.0
20260510130503 58 174 4.0 4.0 0.00 0.35 0.35 85 1012.1
20260510130024 58 164 5.0 7.0 0.00 0.35 0.35 85 1012.0
20260510125503 58 133 5.0 7.0 0.00 0.35 0.35 86 1012.0
20260510125003 58 111 5.0 7.0 0.01 0.35 0.35 86 1011.9
20260510124503 58 98 4.0 6.0 0.01 0.35 0.35 86 1012.1
20260510124003 58 85 5.0 6.0 0.02 0.35 0.35 87 1012.0
20260510123503 57 81 4.0 6.0 0.04 0.35 0.35 87 1012.1
20260510123003 57 91 2.0 4.0 0.04 0.35 0.35 87 1012.1
20260510122503 57 107 2.0 4.0 0.04 0.35 0.35 87 1012.2
20260510122003 57 76 2.0 4.0 0.04 0.35 0.35 87 1012.4
20260510121524 57 67 1.0 4.0 0.05 0.35 0.35 88 1012.4
20260510121003 57 67 0.0 2.0 0.05 0.35 0.35 88 1012.4
20260510120503 57 67 0.0 2.0 0.06 0.35 0.35 88 1012.4
20260510120003 57 67 0.0 1.0 0.06 0.35 0.35 88 1012.5
20260510115503 58 59 0.0 1.0 0.06 0.35 0.35 88 1012.5
20260510115003 58 4 0.0 2.0 0.05 0.34 0.34 88 1012.5
20260510114505 58 357 0.0 2.0 0.06 0.34 0.34 88 1012.5
20260510114005 57 357 0.0 2.0 0.05 0.33 0.33 88 1012.5
20260510113505 58 3 0.0 2.0 0.05 0.32 0.32 88 1012.7
20260510113005 58 1 1.0 4.0 0.05 0.32 0.32 88 1012.8
20260510112505 58 353 1.0 4.0 0.06 0.32 0.32 89 1012.7
20260510112005 58 353 1.0 2.0 0.07 0.32 0.32 89 1012.8
20260510111505 58 15 1.0 3.0 0.06 0.31 0.31 89 1012.7
20260510111005 58 357 1.0 3.0 0.07 0.31 0.31 89 1012.5
20260510110505 58 340 1.0 2.0 0.07 0.30 0.30 89 1012.7
20260510110005 58 4 1.0 2.0 0.07 0.30 0.30 89 1012.9
20260510105505 57 1 2.0 3.0 0.07 0.30 0.30 88 1012.9
20260510105026 57 356 2.0 3.0 0.08 0.30 0.30 88 1012.9
20260510104505 57 343 1.0 3.0 0.07 0.28 0.28 88 1013.0
20260510104005 57 358 1.0 3.0 0.07 0.28 0.28 88 1013.1
20260510103526 57 357 2.0 4.0 0.06 0.27 0.28 88 1012.9
20260510103005 57 1 1.0 4.0 0.07 0.27 0.27 88 1012.9
20260510102505 57 17 1.0 3.0 0.06 0.26 0.26 88 1013.0
20260510102026 57 352 1.0 2.0 0.05 0.25 0.25 88 1013.0
20260510101526 57 345 1.0 4.0 0.06 0.25 0.25 88 1012.9
20260510101005 57 339 1.0 4.0 0.05 0.24 0.24 88 1013.0
20260510100526 57 337 1.0 4.0 0.05 0.22 0.22 88 1013.0
20260510100005 57 352 1.0 2.0 0.05 0.22 0.22 88 1013.1
20260510095505 57 21 0.0 1.0 0.05 0.22 0.22 88 1013.1
20260510095005 57 360 0.0 1.0 0.05 0.21 0.21 88 1013.1
20260510094505 57 8 0.0 1.0 0.06 0.21 0.21 88 1013.2
20260510094005 57 9 0.0 2.0 0.07 0.21 0.21 87 1013.2
20260510093505 57 9 1.0 2.0 0.08 0.21 0.21 87 1013.3
20260510093005 57 9 0.0 2.0 0.07 0.20 0.20 87 1013.2
20260510092505 57 0 0.0 0.0 0.08 0.20 0.20 87 1013.2
20260510092005 56 0 0.0 0.0 0.09 0.20 0.20 87 1013.2
20260510091505 56 0 0.0 0.0 0.09 0.19 0.19 87 1013.1
20260510091005 56 0 0.0 0.0 0.09 0.19 0.19 87 1013.2
20260510090505 56 0 0.0 0.0 0.11 0.18 0.18 86 1013.2
20260510090005 56 0 0.0 0.0 0.11 0.18 0.18 86 1013.2
20260510085526 56 0 0.0 0.0 0.12 0.18 0.18 86 1013.2
20260510085005 56 0 0.0 0.0 0.12 0.17 0.17 86 1013.2
20260510084505 56 0 0.0 0.0 0.11 0.15 0.15 86 1013.2
20260510084005 56 0 0.0 0.0 0.11 0.14 0.14 86 1013.2
20260510083526 56 0 0.0 0.0 0.09 0.13 0.13 86 1013.1
20260510083005 56 0 0.0 0.0 0.09 0.13 0.13 86 1013.2
20260510082505 56 0 0.0 0.0 0.08 0.12 0.12 86 1013.2
20260510082005 56 0 0.0 0.0 0.07 0.11 0.11 86 1013.2
20260510081505 56 0 0.0 0.0 0.06 0.09 0.09 86 1013.2
20260510081005 56 0 0.0 0.0 0.06 0.09 0.09 86 1013.2
20260510080505 56 0 0.0 0.0 0.04 0.07 0.07 86 1013.2
20260510080005 56 0 0.0 0.0 0.04 0.07 0.07 86 1013.2
20260510075505 56 0 0.0 0.0 0.02 0.06 0.06 86 1013.1
20260510075005 56 0 0.0 0.0 0.01 0.05 0.05 86 1012.9
20260510074505 56 0 0.0 0.0 0.01 0.05 0.05 85 1013.0
20260510074026 56 0 0.0 0.0 0.00 0.04 0.04 85 1012.9
20260510073505 56 0 0.0 0.0 0.00 0.04 0.04 85 1012.9
20260510073005 55 345 1.0 2.0 0.00 0.04 0.04 85 1012.9
20260510072526 55 355 1.0 4.0 0.00 0.04 0.04 85 1012.7
20260510072005 55 2 1.0 4.0 0.00 0.04 0.04 85 1012.9
20260510071526 55 9 1.0 5.0 0.00 0.04 0.04 85 1012.7
20260510071005 55 3 3.0 5.0 0.00 0.04 0.04 84 1012.8
20260510070505 55 353 4.0 6.0 0.00 0.04 0.04 84 1012.5
20260510070026 55 358 4.0 6.0 0.00 0.04 0.04 84 1012.7
20260510065505 55 11 3.0 4.0 0.00 0.04 0.04 84 1012.5
20260510065005 55 359 2.0 4.0 0.00 0.04 0.04 83 1012.8
20260510064505 55 358 3.0 4.0 0.00 0.04 0.04 83 1012.7
20260510064005 55 358 4.0 7.0 0.00 0.04 0.04 83 1012.7
20260510063505 55 2 4.0 7.0 0.00 0.04 0.04 83 1012.7
20260510063026 55 10 4.0 5.0 0.00 0.04 0.04 82 1012.7
20260510062505 55 6 5.0 5.0 0.00 0.04 0.04 82 1012.5
20260510062005 55 2 4.0 5.0 0.00 0.04 0.04 82 1012.5
20260510061526 55 353 3.0 4.0 0.01 0.04 0.04 81 1012.7
20260510061005 56 349 2.0 4.0 0.01 0.04 0.04 81 1012.7
20260510060505 56 356 4.0 10.0 0.01 0.04 0.04 81 1012.5
20260510060006 56 355 3.0 10.0 0.01 0.04 0.04 81 1012.5
20260510055505 56 333 1.0 4.0 0.01 0.04 0.04 80 1012.5
20260510055005 56 286 3.0 6.0 0.01 0.04 0.04 80 1012.4
20260510054505 56 263 2.0 6.0 0.01 0.04 0.04 80 1012.2
20260510054005 56 299 1.0 2.0 0.01 0.04 0.04 80 1012.5
20260510053526 56 321 1.0 2.0 0.01 0.04 0.04 79 1012.2
20260510053026 56 316 1.0 2.0 0.01 0.04 0.04 79 1012.0
20260510052526 56 304 1.0 2.0 0.01 0.04 0.04 78 1012.0
20260510052041 56 315 0.0 1.0 0.01 0.04 0.04 78 1012.1
20260510051505 57 283 1.0 2.0 0.00 0.02 0.02 78 1011.8
20260510051005 57 267 0.0 2.0 0.00 0.02 0.02 77 1011.8
20260510050505 57 101 1.0 3.0 0.00 0.02 0.02 78 1011.9
20260510050005 57 101 1.0 3.0 0.00 0.02 0.02 78 1011.5
20260510045526 57 88 0.0 3.0 0.00 0.02 0.02 77 1011.7
20260510045005 57 58 1.0 2.0 0.00 0.02 0.02 78 1011.5
20260510044526 57 26 1.0 2.0 0.00 0.02 0.02 78 1011.5
20260510044005 57 4 2.0 4.0 0.00 0.02 0.02 78 1011.4
20260510043505 57 9 4.0 7.0 0.00 0.02 0.02 78 1011.5
20260510043005 57 16 6.0 8.0 0.00 0.02 0.02 78 1011.4
20260510042526 57 20 6.0 8.0 0.00 0.02 0.02 79 1011.6
20260510042005 57 25 6.0 8.0 0.00 0.02 0.02 79 1011.5
20260510041505 57 27 7.0 10.0 0.00 0.02 0.02 79 1011.6
20260510041026 56 49 7.0 10.0 0.00 0.02 0.02 79 1011.6
20260510040505 56 55 7.0 8.0 0.00 0.02 0.02 78 1011.6
20260510040005 56 23 5.0 8.0 0.00 0.02 0.02 78 1011.5
20260510035526 56 12 4.0 6.0 0.00 0.02 0.02 78 1011.6
20260510035005 56 9 4.0 5.0 0.00 0.02 0.02 77 1011.5
20260510034505 57 3 4.0 5.0 0.00 0.02 0.02 76 1011.7
20260510034026 57 22 4.0 5.0 0.00 0.02 0.02 76 1011.7
20260510033505 57 41 6.0 8.0 0.00 0.02 0.02 75 1011.8
20260510033005 57 45 7.0 8.0 0.00 0.02 0.02 75 1011.7
20260510032505 58 51 7.0 8.0 0.00 0.02 0.02 75 1011.8
20260510032005 58 49 6.0 7.0 0.00 0.02 0.02 75 1011.7
20260510031505 58 47 5.0 5.0 0.00 0.02 0.02 75 1011.8
20260510031005 58 47 3.0 5.0 0.00 0.02 0.02 76 1011.8
20260510030505 57 42 2.0 4.0 0.00 0.02 0.02 76 1011.9
20260510030005 57 6 2.0 4.0 0.00 0.02 0.02 76 1011.9
20260510025505 58 7 4.0 5.0 0.00 0.02 0.02 76 1012.0
20260510025005 57 12 4.0 5.0 0.00 0.02 0.02 76 1012.1
20260510024505 57 15 5.0 5.0 0.00 0.02 0.02 76 1012.0
20260510024020 57 12 4.0 5.0 0.00 0.02 0.02 76 1012.0
20260510023505 57 8 3.0 4.0 0.00 0.02 0.02 76 1012.2
20260510023005 56 10 4.0 6.0 0.00 0.02 0.02 76 1012.4
20260510022505 56 13 4.0 6.0 0.00 0.02 0.02 76 1012.4
20260510022005 56 12 3.0 4.0 0.00 0.02 0.02 76 1012.5
20260510021505 56 9 3.0 4.0 0.00 0.02 0.02 75 1012.5
20260510021005 56 4 3.0 4.0 0.01 0.02 0.02 75 1012.7
20260510020505 56 2 2.0 3.0 0.01 0.02 0.02 73 1012.7
20260510020005 56 4 1.0 3.0 0.01 0.02 0.02 73 1012.8
20260510015505 57 356 1.0 3.0 0.02 0.02 0.02 72 1012.7
20260510015026 57 355 0.0 1.0 0.02 0.02 0.02 71 1012.9
20260510014505 57 22 0.0 1.0 0.02 0.02 0.02 70 1013.0
20260510014005 57 32 2.0 7.0 0.02 0.02 0.02 70 1013.2
20260510013505 58 43 5.0 8.0 0.02 0.02 0.02 70 1012.9
20260510013005 58 60 6.0 8.0 0.02 0.02 0.02 70 1012.9
20260510012505 58 64 5.0 8.0 0.02 0.02 0.02 69 1013.1
20260510012005 58 61 2.0 6.0 0.02 0.02 0.02 67 1012.9
20260510011505 58 137 2.0 5.0 0.02 0.02 0.02 66 1013.0
20260510011005 59 195 5.0 8.0 0.01 0.01 0.01 66 1013.1
20260510010505 59 237 5.0 8.0 0.01 0.01 0.01 64 1013.2
20260510010026 59 231 2.0 5.0 0.01 0.01 0.01 64 1013.2
20260510005505 59 10 1.0 3.0 0.00 0.00 0.00 64 1013.0
20260510005026 59 14 2.0 4.0 0.00 0.00 0.00 64 1013.0
20260510004505 59 18 3.0 4.0 0.00 0.00 0.00 64 1012.9
20260510004005 60 18 3.0 4.0 0.00 0.00 0.00 63 1012.8
20260510003505 60 18 3.0 4.0 0.00 0.00 0.00 63 1012.8
20260510003005 60 21 2.0 4.0 0.00 0.00 0.00 63 1012.9
20260510002505 60 16 2.0 4.0 0.00 0.00 0.00 63 1012.9
20260510002005 60 16 2.0 4.0 0.00 0.00 0.00 63 1013.0
20260510001505 60 25 2.0 4.0 0.00 0.00 0.00 63 1013.1
20260510001026 59 26 2.0 4.0 0.00 0.00 0.00 63 1013.3
20260510000505 59 0 0.0 0.0 0.00 0.00 0.00 63 1013.2
20260510000005 59 0 0.0 0.0 0.00 0.00 0.00 63 1013.3
20260509235505 59 22 0.0 2.0 0.00 0.00 0.00 63 1013.5
20260509235026 59 22 1.0 2.0 0.00 0.00 0.00 63 1013.5
20260509234505 59 14 2.0 2.0 0.00 0.00 0.00 63 1013.4
20260509234005 60 12 3.0 4.0 0.00 0.00 0.00 63 1013.3
20260509233505 60 13 4.0 4.0 0.00 0.00 0.00 63 1013.4
20260509233005 60 10 4.0 4.0 0.00 0.00 0.00 63 1013.2
20260509232505 60 9 3.0 4.0 0.00 0.00 0.00 62 1013.4
20260509232026 60 8 3.0 4.0 0.00 0.00 0.00 62 1013.5
20260509231506 60 15 3.0 4.0 0.00 0.00 0.00 62 1013.4
20260509230504 60 9 3.0 4.0 0.00 0.00 0.00 61 1013.6
20260509230004 61 9 4.0 4.0 0.00 0.00 0.00 61 1013.4
20260509225504 61 11 4.0 4.0 0.00 0.00 0.00 60 1013.4
20260509225004 61 13 3.0 4.0 0.00 0.00 0.00 60 1013.5
20260509224504 61 17 2.0 4.0 0.00 0.00 0.00 60 1013.4
20260509224004 61 19 1.0 3.0 0.00 0.00 0.00 60 1013.5
20260509223525 61 18 0.0 2.0 0.00 0.00 0.00 60 1013.7
20260509223004 61 0 0.0 0.0 0.00 0.00 0.00 60 1013.6
20260509222504 61 7 0.0 2.0 0.00 0.00 0.00 60 1013.7
20260509222004 61 7 0.0 2.0 0.00 0.00 0.00 60 1013.6
20260509221525 61 0 0.0 0.0 0.00 0.00 0.00 60 1013.7
20260509221004 61 0 0.0 0.0 0.00 0.00 0.00 60 1013.6
20260509220525 61 0 0.0 0.0 0.00 0.00 0.00 59 1013.6
20260509220004 61 0 0.0 0.0 0.00 0.00 0.00 59 1013.5
20260509215504 62 0 0.0 0.0 0.00 0.00 0.00 58 1013.5
20260509215004 62 0 0.0 0.0 0.00 0.00 0.00 57 1013.5
20260509214525 62 0 0.0 0.0 0.00 0.00 0.00 56 1013.4
20260509214004 62 10 0.0 2.0 0.00 0.00 0.00 55 1013.5
20260509213504 62 8 1.0 2.0 0.00 0.00 0.00 54 1013.6
20260509213004 62 8 0.0 2.0 0.00 0.00 0.00 53 1013.5
20260509212504 63 0 0.0 0.0 0.00 0.00 0.00 53 1013.6
20260509212025 63 0 0.0 0.0 0.00 0.00 0.00 53 1013.3
20260509211504 63 0 0.0 0.0 0.00 0.00 0.00 52 1013.5
20260509211032 63 0 0.0 0.0 0.00 0.00 0.00 52 1013.3
20260509210504 63 0 0.0 0.0 0.00 0.00 0.00 52 1013.4
20260509210025 63 0 0.0 0.0 0.00 0.00 0.00 52 1013.6
20260509205504 63 0 0.0 0.0 0.00 0.00 0.00 52 1013.5
20260509205025 63 0 0.0 0.0 0.00 0.00 0.00 52 1013.5
20260509204525 64 0 0.0 0.0 0.00 0.00 0.00 50 1013.5
20260509204004 64 0 0.0 0.0 0.00 0.00 0.00 50 1013.5
20260509203525 64 0 0.0 0.0 0.00 0.00 0.00 50 1013.5
20260509203025 64 0 0.0 0.0 0.00 0.00 0.00 49 1013.5
20260509202504 64 0 0.0 0.0 0.00 0.00 0.00 49 1013.3
20260509202004 64 0 0.0 0.0 0.00 0.00 0.00 49 1013.5
20260509201525 64 0 0.0 0.0 0.00 0.00 0.00 49 1013.5
20260509201004 64 0 0.0 0.0 0.00 0.00 0.00 49 1013.5
20260509200525 64 0 0.0 0.0 0.00 0.00 0.00 48 1013.5
20260509200004 64 0 0.0 0.0 0.00 0.00 0.00 48 1013.4
20260509195504 65 0 0.0 0.0 0.00 0.00 0.00 47 1013.2
20260509195004 65 0 0.0 0.0 0.00 0.00 0.00 47 1013.3
20260509194504 65 0 0.0 0.0 0.00 0.00 0.00 47 1012.9
20260509194019 66 0 0.0 0.0 0.00 0.00 0.00 47 1012.9
20260509193504 66 0 0.0 0.0 0.00 0.00 0.00 46 1013.0
20260509193004 66 0 0.0 0.0 0.00 0.00 0.00 46 1012.9
20260509192504 66 0 0.0 0.0 0.00 0.00 0.00 46 1012.8
20260509192004 66 0 0.0 0.0 0.00 0.00 0.00 45 1012.9
20260509191504 66 0 0.0 0.0 0.00 0.00 0.00 45 1012.8
20260509191004 66 0 0.0 0.0 0.00 0.00 0.00 45 1012.9
20260509190504 66 0 0.0 0.0 0.00 0.00 0.00 46 1012.8
20260509190004 66 0 0.0 0.0 0.00 0.00 0.00 46 1012.9